Weather History for Taree, NW

Change the Weather History Date:

Tuesday, February 5, 2013

  Actual Average Record
Temperature  
Mean Temperature 70 °F -  
Max Temperature 77 °F - - ()
Min Temperature 62 °F - - ()
Cooling Degree Days 4    
Growing Degree Days 20 (Base 50)    
Moisture  
Dew Point 62 °F    
Average Humidity 75    
Maximum Humidity 100    
Minimum Humidity 46    
Precipitation  
Precipitation 0.01 in - - ()
Sea Level Pressure  
Sea Level Pressure 30.17 in    
Wind  
Wind Speed 6 mph ()    
Max Wind Speed 15 mph    
Max Gust Speed -    
T = Trace of Precipitation, MM = Missing Value Source: Averaged Metar Reports

Daily Weather History Graph

Daily Weather History Graph

Search for Another Location

Airport:

Trip Planner

Search our weather history database for the weather conditions in past years. The results will help you decide how hot, cold, wet, or windy it might be!

Date:

Astronomy

Feb. 05, 2013 Rise Set
Actual Time 6:18 AM EST 7:48 PM EST
Civil Twilight 5:52 AM EST 8:14 PM EST
Nautical Twilight 5:21 AM EST 8:46 PM EST
Astronomical Twilight 4:48 AM EST 9:18 PM EST
Moon 12:48 AM EST (2/5) 3:03 PM EST (2/5)
Length of Visible Light 14h 22m
Length of Day
13h 30m
Waning Crescent, 34% of the Moon is Illuminated
Feb 5
Waning Crescent
Feb 10
New
Feb 18
First Quarter
Feb 26
Full
Mar 5
Last Quarter

Hourly Weather History & Observations

Time (EST) Temp. Dew Point Humidity Pressure Visibility Wind Dir Wind Speed Gust Speed Precip Events Conditions
12:00 AM 65 °F 64 °F 95% 30.20 in - West 5.8 mph - -   Overcast
12:00 AM 66.2 °F 64.4 °F 94% 30.18 in - West 5.8 mph - N/A   Overcast
1:00 AM 64.4 °F 62.6 °F 94% 30.18 in - North 4.6 mph - N/A   Mostly Cloudy
3:00 AM 64 °F 63 °F 94% 30.17 in - NW 3.5 mph - -   Overcast
3:00 AM 64.4 °F 62.6 °F 94% 30.15 in - NW 3.5 mph - N/A   Mostly Cloudy
4:00 AM 64.4 °F 62.6 °F 94% 30.15 in - North 1.2 mph - N/A   Overcast
6:00 AM 63 °F 62 °F 96% 30.17 in - NW 5.8 mph - -   Overcast
6:00 AM 62.6 °F 62.6 °F 100% 30.15 in - NW 5.8 mph - N/A   Mostly Cloudy
7:00 AM 64.4 °F 62.6 °F 94% 30.18 in - NW 3.5 mph - N/A   Overcast
8:00 AM 66.2 °F 64.4 °F 94% 30.21 in - West 4.6 mph - N/A   Mostly Cloudy
9:00 AM 69 °F 62 °F 73% 30.22 in - West 5.8 mph - -   Overcast
9:00 AM 68.0 °F 62.6 °F 83% 30.21 in - West 5.8 mph - N/A   Overcast
10:00 AM 71.6 °F 62.6 °F 73% 30.21 in - WNW 6.9 mph - N/A   Scattered Clouds
11:00 AM 73.4 °F 62.6 °F 69% 30.21 in - East 6.9 mph - N/A   Overcast
12:00 PM 76 °F 59 °F 46% 30.20 in - South 11.5 mph - -  
12:00 PM 77.0 °F 59.0 °F 54% 30.18 in - South 11.5 mph - N/A   Scattered Clouds
1:00 PM 77.0 °F 59.0 °F 54% 30.18 in - SE 12.7 mph - N/A   Unknown
2:00 PM 77.0 °F 62.6 °F 61% 30.15 in - ESE 12.7 mph - N/A   Mostly Cloudy
3:00 PM 77 °F 64 °F 55% 30.15 in - ESE 13.8 mph - -  
3:00 PM 77.0 °F 64.4 °F 65% 30.15 in - ESE 13.8 mph - N/A   Mostly Cloudy
4:00 PM 75.2 °F 60.8 °F 61% 30.12 in - East 15.0 mph - N/A   Mostly Cloudy
5:00 PM 73.4 °F 59.0 °F 61% 30.15 in - ESE 11.5 mph - N/A   Mostly Cloudy
6:00 PM 75 °F 62 °F 54% 30.15 in - ESE 11.5 mph - -  
6:00 PM 75.2 °F 62.6 °F 65% 30.15 in - ESE 11.5 mph - N/A   Scattered Clouds
7:00 PM 71.6 °F 60.8 °F 69% 30.15 in - East 8.1 mph - N/A   Scattered Clouds
8:00 PM 69.8 °F 60.8 °F 73% 30.18 in - East 4.6 mph - N/A   Mostly Cloudy
9:00 PM 69 °F 61 °F 69% 30.19 in - Calm Calm - -  
9:00 PM 69.8 °F 60.8 °F 73% 30.18 in - Calm Calm - N/A   Overcast
10:00 PM 68.0 °F 60.8 °F 78% 30.18 in - Calm Calm - N/A   Scattered Clouds
11:00 PM 68.0 °F 60.8 °F 78% 30.18 in - North 1.2 mph - N/A   Overcast